TimeMDT,TemperatureF,Dew PointF,Humidity,Sea Level PressureIn,VisibilityMPH,Wind Direction,Wind SpeedMPH,Gust SpeedMPH,PrecipitationIn,Events,Conditions,WindDirDegrees,DateUTC
12:53 AM,45.0,27.0,49,29.96,10.0,West,5.8,-,N/A,,Scattered Clouds,260,2013-04-26 06:53:00
1:53 AM,41.0,24.1,51,29.96,10.0,WSW,5.8,-,N/A,,Scattered Clouds,250,2013-04-26 07:53:00
2:53 AM,42.1,21.9,45,29.96,10.0,Calm,Calm,-,N/A,,Clear,0,2013-04-26 08:53:00
3:53 AM,36.0,24.1,62,29.99,10.0,Calm,Calm,-,N/A,,Scattered Clouds,0,2013-04-26 09:53:00
4:53 AM,36.0,25.0,64,30.01,10.0,Calm,Calm,-,N/A,,Scattered Clouds,0,2013-04-26 10:53:00
5:53 AM,37.0,23.0,57,30.04,10.0,WNW,4.6,-,N/A,,Scattered Clouds,300,2013-04-26 11:53:00
6:53 AM,39.9,25.0,55,30.07,10.0,West,5.8,-,N/A,,Scattered Clouds,270,2013-04-26 12:53:00
7:53 AM,46.0,24.1,42,30.09,10.0,NW,6.9,-,N/A,,Scattered Clouds,310,2013-04-26 13:53:00
8:53 AM,50.0,19.0,29,30.11,10.0,NNW,10.4,-,N/A,,Partly Cloudy,330,2013-04-26 14:53:00
9:53 AM,53.1,18.0,25,30.12,10.0,North,8.1,-,N/A,,Scattered Clouds,360,2013-04-26 15:53:00
10:53 AM,55.9,18.0,23,30.13,10.0,North,3.5,-,N/A,,Scattered Clouds,350,2013-04-26 16:53:00
11:53 AM,60.1,19.0,20,30.13,10.0,NNE,10.4,16.1,N/A,,Scattered Clouds,20,2013-04-26 17:53:00
12:53 PM,61.0,19.0,20,30.12,10.0,Variable,6.9,17.3,N/A,,Scattered Clouds,0,2013-04-26 18:53:00
1:53 PM,61.0,17.1,18,30.14,10.0,East,5.8,-,N/A,,Scattered Clouds,90,2013-04-26 19:53:00
2:53 PM,62.1,19.0,19,30.13,10.0,NNE,9.2,-,N/A,,Scattered Clouds,20,2013-04-26 20:53:00
3:53 PM,63.0,19.9,19,30.13,10.0,NE,8.1,-,N/A,,Scattered Clouds,40,2013-04-26 21:53:00
4:53 PM,63.0,19.9,19,30.13,10.0,ENE,10.4,-,N/A,,Scattered Clouds,60,2013-04-26 22:53:00
5:53 PM,61.0,19.0,20,30.15,10.0,ENE,6.9,-,N/A,,Scattered Clouds,70,2013-04-26 23:53:00
6:53 PM,59.0,18.0,20,30.15,10.0,East,8.1,-,N/A,,Scattered Clouds,80,2013-04-27 00:53:00
7:53 PM,53.1,21.9,30,30.16,10.0,ESE,4.6,-,N/A,,Scattered Clouds,120,2013-04-27 01:53:00
8:53 PM,48.9,26.1,41,30.19,10.0,SSE,6.9,-,N/A,,Scattered Clouds,160,2013-04-27 02:53:00
9:53 PM,46.9,25.0,42,30.20,10.0,South,8.1,-,N/A,,Scattered Clouds,180,2013-04-27 03:53:00
10:53 PM,44.1,26.1,49,30.20,10.0,South,9.2,-,N/A,,Partly Cloudy,180,2013-04-27 04:53:00
11:53 PM,44.1,25.0,47,30.19,10.0,South,6.9,-,N/A,,Partly Cloudy,190,2013-04-27 05:53:00